Location: Hokitika
(42.7170°S, 170.9670°E)
Time: 17:29:04
(UTC+13:00)

Gbstr 26 Del rocket - Pass Details

Date: 24 January 2019
Orbit: 493 x 1264 km, 51.8° (Epoch: 23 October)

Event Time Altitude Azimuth Distance (km) Brightness Sun altitude
Rises 23:39:00 0° 237° (WSW) 2,770 7.5 -21.3°
Reaches altitude 10° 23:41:32 10° 226° (SW) 1,800 6.5 -21.5°
Maximum altitude 23:45:05 30° 163° (SSE) 939 4.3 -21.9°
Enters shadow 23:46:41 22° 121° (ESE) 1,152 4.4 -22.0°
